SITRO-AIS 51

Last updated on Sun May 04 2025 00:03:40 GMT+0000 (Coordinated Universal Time)

1 59062U 24039M 25123.61397012 .10990724 26399-5 83011-3 0 9994 2 59062 97.4001 100.2813 0008544 216.6845 143.3871 16.40443915 66223

Satellite not in orbit

SITRO-AIS 51